Date,TemperatureHighF,TemperatureAvgF,TemperatureLowF,DewpointHighF,DewpointAvgF,DewpointLowF,HumidityHigh,HumidityAvg,HumidityLow,PressureMaxIn,PressureMinIn,WindSpeedMaxMPH,WindSpeedAvgMPH,GustSpeedMaxMPH,PrecipitationSumIn
2013-1-1,96,81,73,70,64,58,77,59,29,29.62,29.44,14,3,14,0.00
2013-1-2,76,72,68,68,63,58,86,75,65,29.79,29.47,14,4,14,0.00
2013-1-3,78,71,67,63,60,56,75,68,57,29.82,29.74,12,2,12,0.00
2013-1-4,83,75,67,66,62,59,80,65,52,29.76,29.65,11,2,11,0.00
2013-1-5,90,78,67,67,63,60,78,62,43,29.76,29.65,10,2,10,0.00
2013-1-6,85,76,69,68,65,62,81,68,52,29.91,29.76,11,2,11,0.00
2013-1-7,84,76,71,70,66,62,88,73,60,29.91,29.68,13,2,13,0.00
2013-1-8,105,88,70,63,58,46,75,42,21,29.65,29.14,26,7,26,0.00
2013-1-9,91,77,69,64,56,46,68,52,22,29.47,29.06,26,6,26,0.00
2013-1-10,73,70,68,62,59,57,73,68,64,29.59,29.47,7,1,7,0.00
2013-1-11,93,85,69,70,67,62,81,56,43,29.59,29.38,12,2,12,0.00
2013-1-12,108,85,72,69,65,61,77,54,23,29.62,29.38,27,4,27,0.00
2013-1-13,84,74,67,70,66,63,97,78,62,29.62,29.44,12,3,12,0.08
2013-1-14,74,68,64,66,59,50,95,74,47,29.85,29.56,15,4,15,0.17
2013-1-15,79,70,62,62,60,54,94,71,48,29.85,29.71,14,2,14,0.00
2013-1-16,86,73,65,66,60,56,81,67,41,29.71,29.56,9,1,9,0.00
2013-1-17,87,79,71,72,68,64,88,71,53,29.62,29.41,10,2,10,0.00
2013-1-18,112,89,74,72,66,58,87,54,21,29.47,29.17,22,4,22,0.13
2013-1-19,75,72,67,65,62,58,93,72,64,29.74,29.47,18,4,18,0.12
2013-1-20,71,69,67,68,66,64,96,92,89,29.76,29.68,6,1,6,0.99
2013-1-21,82,74,69,72,68,65,95,82,62,29.74,29.59,13,1,13,0.00
2013-1-22,94,77,68,73,68,65,91,77,50,29.59,29.44,10,2,10,0.09
2013-1-23,73,71,69,68,67,65,92,85,78,29.76,29.59,13,4,13,0.00
2013-1-24,82,73,68,71,68,66,93,85,67,29.76,29.65,14,3,14,0.00
2013-1-25,86,77,69,75,70,68,95,81,62,29.68,29.53,10,2,10,0.00
2013-1-26,86,78,72,77,71,69,89,79,60,29.62,29.53,15,2,15,0.37
2013-1-27,75,72,70,72,70,68,97,91,83,29.56,29.50,10,1,10,1.50
2013-1-28,71,70,68,70,69,67,98,97,95,29.53,29.35,23,3,23,4.35
2013-1-29,84,72,68,77,70,64,98,95,71,29.56,29.26,14,3,14,0.37
2013-1-30,77,71,68,69,67,66,95,87,72,29.71,29.56,9,2,9,0.37
2013-1-31,89,78,70,74,70,68,92,78,56,29.71,29.44,8,2,8,0.37